Regional Weather Roundup
Issued by NWS

Home | Current Version | Previous Version | Graphics & Text | Print | Product List | Glossary On
Versions: 1 2 3 4 5 6 7 8 9 10 11 12 13 14 15 16 17 18 19 20 21 22 23 24 25 26 27 28 29 30 31 32 33 34 35 36 37 38 39 40 41 42 43 44 45 46 47 48 49 50
000
ASUS43 KLSX 251107
RWRMO

WEATHER SUMMARY FOR MISSOURI
NATIONAL WEATHER SERVICE SPRINGFIELD MO
600 AM CDT WED APR 25 2018

NOTE: "FAIR" INDICATES FEW OR NO CLOUDS BELOW 12,000 FEET WITH NO
       SIGNIFICANT WEATHER AND/OR OBSTRUCTIONS TO VISIBILITY.
       CURRENT SKY AND/OR WEATHER CONDITIONS ARE NOT AVAILABLE FOR
       CHILLICOTHE AND FARMINGTON.

MOZ001>031-035>038-043-044-053-054-251200-
...NORTHERN AND WESTERN MISSOURI...

CITY           SKY/WX    TMP DP  RH WIND       PRES   REMARKS
KANSAS CTY INT CLOUDY    51  44  77 N10       30.12F
KANSAS C DTWN  CLOUDY    55  42  61 N8        30.12S
LEE`S SUMMIT   CLOUDY    55  44  66 N10       30.11S
ST JOSEPH      CLOUDY    49  47  93 N7        30.15F
CHILLICOTHE      N/A     54  41  61 NW5       30.13R
KIRKSVILLE     CLOUDY    52  38  58 N10       30.11R

$$
MOZ066>068-077>081-088>096-101>105-251200-
...SOUTHWEST MISSOURI...

CITY           SKY/WX    TMP DP  RH WIND       PRES   REMARKS
SPRINGFIELD    PTCLDY    51  42  71 N3        30.06R
JOPLIN         LGT RAIN  54  48  80 NW10      30.13R
BRANSON        CLOUDY    54  41  62 NW5       30.06R

$$
MOZ032>034-039>042-045>050-055>058-069>072-251200-
...CENTRAL MISSOURI...

CITY           SKY/WX    TMP DP  RH WIND       PRES   REMARKS
COLUMBIA       MOCLDY    54  43  66 N8        30.07R
JEFFERSON CITY CLOUDY    53  43  68 NW3       30.06R
ROLLA          CLOUDY    52  40  63 NW8       30.05R
SEDALIA        CLOUDY    57  47  69 N9        30.09R
WHITEMAN AFB   MOCLDY    56  45  66 N12       30.05R
WARRENSBURG    CLOUDY    55  43  62 N8        30.09F
OSAGE BEACH    CLOUDY    49  44  83 CALM      30.07R

$$
MOZ051-052-059>065-251200-
...EAST CENTRAL MISSOURI...

CITY           SKY/WX    TMP DP  RH WIND       PRES   REMARKS
ST LOUIS INTL  MOCLDY    51  39  63 W5        30.01R
SPIRIT OF STL  PTCLDY    44  40  85 SW3       30.01R
ST CHARLES     MOCLDY    56  41  57 NW8       30.00R

$$
MOZ072>076-082>087-097>100-106>115-251200-
...SOUTH CENTRAL AND SOUTHEAST MISSOURI...

CITY           SKY/WX    TMP DP  RH WIND       PRES   REMARKS
CAPE GIRARDEAU FOG       43  43 100 CALM      30.00R VSB 1/4
FARMINGTON     CLEAR     44  42  93 CALM      30.02R
POPLAR BLUFF   FAIR      47  47 100 S3        30.00S FOG
WEST PLAINS    CLEAR     51  45  79 N3        30.04S

$$



USA.gov is the U.S. government's official web portal to all federal, state and local government web resources and services.